sat.trackr.live / text

‹ back to catalog

STARLINK-36084

NORAD 66829 · 2025-280J

PAYLOAD ACTIVE UNKNOWN

§ Identity

Operator
Country
US
Launch date
2025-12-02
Launch site
AFWTR
Launch vehicle
Mass (kg)
RCS (m²)

Purposes: comms

External: N2YO · Heavens-Above · Gunter

§ Orbital elements

Epoch: 2026-05-25T02:30:30.262752Z

Period
96.11 min
Inclination
70.0003°
Eccentricity
0.0004302
Mean motion
14.98338922 rev/d
Perigee alt
569.0 km
Apogee alt
575.0 km
Semi-major
6,950.2 km
B*
3.1886e-4
RAAN
141.7257°
Arg perigee
264.5594°
Mean anomaly
95.5075°
Rev number
2,752

§ Raw data

STARLINK-360841 66829U 25280J   26145.10451693  .00003715  00000+0  31886-3 0  99992 66829  70.0003 141.7257 0004302 264.5594  95.5075 14.98338922 27520

JSON: /api/v1/satellites/66829 · /tle

For live sub-satellite position, see the globe view (requires WebGL).

§ Visibility from observer

Set your observer location to see the next 7 days of passes ≥ 10°. The values pass through the URL so the page stays shareable.

No JS? Fill the form by hand. The geolocation button needs JavaScript.